Location: Ermatingen
(47.6706°N, 9.0857°E)
Time: 15:47:39
(UTC+00:00)

USA 234 - Pass Details

Date: 18 September 2020
Orbit: 1102 x 1106 km, 123.0° (Epoch: 16 October)

Event Time Altitude Azimuth Distance (km) Brightness Sun altitude
Rises 21:59:38 0° 61° (ENE) 3,925 6.2 -38.1°
Reaches altitude 10° 22:02:13 10° 55° (NE) 2,966 5.6 -38.2°
Enters shadow 22:03:22 16° 51° (NE) 2,564 5.3 -38.3°
Exits shadow 22:06:55 40° 19° (NNE) 1,586 4.2 -38.6°
Maximum altitude 22:08:22 45° 346° (NNW) 1,461 4.1 -38.7°
Drops below altitude 10° 22:14:31 10° 276° (W) 2,964 5.7 -39.0°
Sets 22:17:06 0° 270° (W) 3,922 6.4 -39.2°
